Flag for Swaziland Weather past 2 weeks in Mbabane, Swaziland

Now
63 °F

Passing clouds.


Feels Like: 63 °F
Forecast: 46 / 53 °F
Wind: 15 mph from South

Location: Maputo / Mavalane

Current Time: Sep 4, 2015 at 4:44:30 AM

Latest Report: Sep 4, 2015 at 4:00 AM


Visibility: N/A

Pressure: 30.39 "Hg (26.49 "Hg at 1166m altitude)

Humidity: 68%

Dew point: 52 °F

Location of MbabaneLocation

Historic Weather in Mbabane — Graph

°F

Mbabane temperature yesterday

Maximum temperature yesterday: 75 °F (at 3:00 PM)
Minimum temperature yesterday: 64 °F (at 5:00 AM)
Average temperature yesterday: 69 °F

Past Weeks' High & Low Weather Summary

 TemperatureHumidityPressure
High93 °F (Sep 1, 2:00 PM)100% (Aug 31, 6:00 AM)30.42 "Hg (Aug 31, 6:00 AM)
Low59 °F (Aug 25, 6:00 AM)28% (Sep 1, 2:00 PM)29.83 "Hg (Sep 1, 2:00 PM)
Average73 °F73%30.11 "Hg
* Reported Aug 20 3:00 AM — Sep 4 3:00 AM, Mbabane, Weather by CustomWeather, © 2015

Note: Actual official high and low records may vary slightly from our data, if they occured in-between our weather recording intervals... More about our weather records

Advertising

Mbabane weather history for previous 24 hours

 ConditionsComfort  
Time TempWeatherWind HumidityBarometerVisibility
3:00 AM
Fri, Sep 4
63 °FPassing clouds.14 mph68%30.39 "HgN/A
2:00 AM64 °FPassing clouds.14 mph68%30.42 "HgN/A
1:00 AM75 °FPassing clouds.5 mph83%30.09 "HgN/A
12:00 AM75 °FPassing clouds.6 mph83%30.09 "HgN/A
11:00 PM
Thu, Sep 3
66 °FPassing clouds.12 mph64%30.42 "HgN/A
10:00 PM66 °FPassing clouds.12 mph64%30.42 "HgN/A
9:00 PM68 °FPassing clouds.15 mph60%30.42 "HgN/A
8:00 PM68 °FPassing clouds.15 mph64%30.39 "HgN/A
7:00 PM70 °FPassing clouds.16 mph60%30.36 "HgN/A
6:00 PM70 °FPassing clouds.20 mph57%30.33 "HgN/A
5:00 PM75 °FPassing clouds.16 mph44%30.30 "HgN/A
4:00 PM75 °FPartly sunny.15 mph47%30.27 "HgN/A
3:00 PM75 °FPartly sunny.14 mph44%30.27 "HgN/A
2:00 PM72 °FPartly sunny.15 mph50%30.30 "HgN/A
1:00 PM72 °FPartly sunny.13 mph47%30.30 "HgN/A
12:00 PM72 °FPartly sunny.14 mph47%30.33 "HgN/A
11:00 AM70 °FPartly sunny.17 mph50%30.33 "HgN/A
10:00 AM68 °FPartly sunny.18 mph53%30.33 "HgN/A
9:00 AM66 °FPartly sunny.17 mph60%30.24 "HgN/A
8:00 AM66 °FBroken clouds.18 mph64%30.30 "HgN/A
6:00 AM66 °FMore clouds than sun.14 mph73%30.24 "HgN/A
5:00 AM64 °FLight rain. More clouds than sun.9 mph78%30.24 "Hg5 mi
Weather by CustomWeather, © 2015

See weather overviewHow to use our weather pages